FWG15P LIBR-LGSA

Flight info

Callsign FWG15P
Flight time 1h 6m
Altitude 37000
Route TIGRA UL995 KRK UL53 IPTES UL604 TRL UL612 RUSOS
Aircraft A20N/M-SDE2E3FGHIRWXY/LB1

Departure

Time 2026-05-04 10:49
Airport Brindisi Airport (LIBR)

Arrival

Time 2026-05-04 11:55
Airport Chania International Airport (LGSA)
Time Latitude Longitude Altitude Speed Heading
2026-05-04 10:28 40.65758 17.94019 36 ft 0 kts 322°
2026-05-04 10:39 40.65707 17.94071 36 ft 2 kts 322°
2026-05-04 10:39 40.65695 17.94083 36 ft 2 kts 322°
2026-05-04 10:39 40.65684 17.94095 36 ft 0 kts 322°
2026-05-04 10:40 40.65679 17.94099 36 ft 0 kts
2026-05-04 10:40 40.65673 17.94095 36 ft 1 kts 62°
2026-05-04 10:40 40.65666 17.94078 37 ft 2 kts 49°
2026-05-04 10:40 40.65656 17.94063 37 ft 1 kts 54°
2026-05-04 10:41 40.65655 17.94060 37 ft 0 kts 54°
2026-05-04 10:42 40.65655 17.94061 37 ft 0 kts 54°
2026-05-04 10:42 40.65667 17.94082 36 ft 6 kts 53°
2026-05-04 10:43 40.65712 17.94160 35 ft 14 kts 52°
2026-05-04 10:44 40.66335 17.94376 22 ft 23 kts 317°
2026-05-04 10:45 40.66455 17.94230 22 ft 23 kts 317°
2026-05-04 10:45 40.66571 17.94089 23 ft 21 kts 316°
2026-05-04 10:45 40.66677 17.93960 25 ft 20 kts 316°
2026-05-04 10:45 40.66782 17.93831 25 ft 20 kts 317°
2026-05-04 10:46 40.66886 17.93706 26 ft 19 kts 314°
2026-05-04 10:46 40.66985 17.93583 27 ft 19 kts 317°
2026-05-04 10:46 40.67081 17.93465 27 ft 18 kts 317°
2026-05-04 10:46 40.67176 17.93348 28 ft 18 kts 317°
2026-05-04 10:47 40.67270 17.93234 28 ft 18 kts 317°
2026-05-04 10:47 40.67344 17.93117 28 ft 15 kts 276°
2026-05-04 10:47 40.67335 17.93078 28 ft 0 kts 231°
2026-05-04 10:47 40.67330 17.93070 28 ft 6 kts 231°
2026-05-04 10:49 40.64101 17.96723 1847 ft 158 kts 134°
2026-05-04 10:49 40.63311 17.97760 2415 ft 168 kts 135°
2026-05-04 10:50 40.62396 17.98821 2897 ft 184 kts 137°
2026-05-04 10:51 40.60992 18.12697 7072 ft 277 kts 87°
2026-05-04 10:52 40.60954 18.15218 7942 ft 280 kts 87°
2026-05-04 10:52 40.60921 18.17769 8786 ft 283 kts 87°
2026-05-04 10:52 40.60891 18.20349 9619 ft 285 kts 87°
2026-05-04 10:54 40.54545 18.37210 13652 ft 367 kts 133°
2026-05-04 10:54 40.52682 18.39598 13996 ft 382 kts 132°
2026-05-04 10:56 40.38922 18.57373 18214 ft 413 kts 132°
2026-05-04 10:56 40.36872 18.60015 18768 ft 417 kts 132°
2026-05-04 10:56 40.34801 18.62681 19303 ft 421 kts 132°
2026-05-04 10:57 40.32705 18.65375 19826 ft 425 kts 133°
2026-05-04 10:57 40.30588 18.68096 20341 ft 429 kts 133°
2026-05-04 10:57 40.28451 18.70838 20858 ft 433 kts 133°
2026-05-04 10:57 40.26297 18.73600 21345 ft 437 kts 133°
2026-05-04 10:58 40.24118 18.76394 21835 ft 441 kts 133°
2026-05-04 10:58 40.21923 18.79206 22314 ft 445 kts 133°
2026-05-04 10:58 40.19704 18.82047 22799 ft 449 kts 133°
2026-05-04 10:58 40.17468 18.84909 23271 ft 453 kts 133°
2026-05-04 10:59 40.15211 18.87793 23731 ft 457 kts 133°
2026-05-04 10:59 40.12937 18.90697 24179 ft 460 kts 133°
2026-05-04 10:59 40.10640 18.93625 24580 ft 465 kts 133°
2026-05-04 10:59 40.08326 18.96582 24970 ft 469 kts 132°
2026-05-04 11:00 40.06078 18.99676 25361 ft 472 kts 129°
2026-05-04 11:01 39.91393 19.23594 27905 ft 496 kts 129°
2026-05-04 11:02 39.89103 19.26946 28340 ft 496 kts 128°
2026-05-04 11:02 39.86821 19.30310 28663 ft 498 kts 128°
2026-05-04 11:05 39.54197 19.78818 32528 ft 512 kts 129°
2026-05-04 11:06 39.51856 19.82279 32799 ft 512 kts 129°
2026-05-04 11:06 39.49508 19.85743 33051 ft 512 kts 129°
2026-05-04 11:06 39.47164 19.89198 33305 ft 513 kts 129°
2026-05-04 11:06 39.44812 19.92656 33550 ft 513 kts 129°
2026-05-04 11:08 39.28380 20.16734 35169 ft 509 kts 129°
2026-05-04 11:10 39.12021 20.40524 36285 ft 508 kts 129°
2026-05-04 11:12 38.95554 20.64293 37127 ft 513 kts 129°
2026-05-04 11:12 38.93173 20.67713 37119 ft 516 kts 130°
2026-05-04 11:12 38.88381 20.74589 37134 ft 520 kts 130°
2026-05-04 11:13 38.83554 20.81497 37136 ft 522 kts 130°
2026-05-04 11:13 38.78704 20.88421 37134 ft 525 kts 130°
2026-05-04 11:14 38.73828 20.95372 37142 ft 526 kts 130°
2026-05-04 11:16 38.54736 21.22438 37117 ft 517 kts 129°
2026-05-04 11:16 38.49896 21.29257 37127 ft 521 kts 130°
2026-05-04 11:17 38.45031 21.36100 37120 ft 518 kts 130°
2026-05-04 11:19 38.25534 21.63378 37133 ft 519 kts 129°
2026-05-04 11:19 38.20668 21.70156 37119 ft 521 kts 130°
2026-05-04 11:20 38.15784 21.76940 37125 ft 518 kts 130°
2026-05-04 11:20 38.10953 21.83630 37134 ft 515 kts 130°
2026-05-04 11:22 37.93775 22.07328 37106 ft 528 kts 131°
2026-05-04 11:22 37.91291 22.10737 37119 ft 526 kts 130°
2026-05-04 11:23 37.86402 22.17433 37114 ft 514 kts 130°
2026-05-04 11:25 37.69296 22.40786 37129 ft 521 kts 131°
2026-05-04 11:25 37.64362 22.47486 37110 ft 523 kts 131°
2026-05-04 11:27 37.42126 22.77516 37141 ft 520 kts 132°
2026-05-04 11:28 37.37174 22.84164 37130 ft 524 kts 131°
2026-05-04 11:28 37.32213 22.90811 37137 ft 520 kts 131°
2026-05-04 11:29 37.27282 22.97411 37142 ft 521 kts 132°
2026-05-04 11:29 37.22295 23.04062 37130 ft 525 kts 132°
2026-05-04 11:31 37.04940 23.27118 37002 ft 528 kts 132°
2026-05-04 11:33 36.87390 23.50258 30910 ft 525 kts 131°
2026-05-04 11:33 36.84901 23.53525 30085 ft 519 kts 131°
2026-05-04 11:33 36.82421 23.56782 29391 ft 517 kts 131°
2026-05-04 11:34 36.79954 23.60017 28823 ft 514 kts 131°
2026-05-04 11:34 36.77498 23.63231 28249 ft 512 kts 131°
2026-05-04 11:34 36.75048 23.66437 27717 ft 508 kts 132°
2026-05-04 11:34 36.72621 23.69613 27196 ft 504 kts 132°
2026-05-04 11:35 36.70218 23.72752 26699 ft 500 kts 132°
2026-05-04 11:35 36.67831 23.75864 26193 ft 496 kts 132°
2026-05-04 11:35 36.65464 23.78952 25697 ft 492 kts 132°
2026-05-04 11:35 36.63110 23.82016 25210 ft 488 kts 131°
2026-05-04 11:36 36.60777 23.85051 24728 ft 484 kts 131°
2026-05-04 11:36 36.58461 23.88064 24241 ft 480 kts 132°
2026-05-04 11:36 36.56161 23.91051 23747 ft 477 kts 131°
2026-05-04 11:36 36.53872 23.94020 23259 ft 473 kts 131°
2026-05-04 11:37 36.51605 23.96961 22797 ft 470 kts 131°
2026-05-04 11:37 36.49350 23.99883 22331 ft 467 kts 131°
2026-05-04 11:37 36.47108 24.02786 21853 ft 463 kts 131°
2026-05-04 11:37 36.44884 24.05658 21381 ft 459 kts 131°
2026-05-04 11:38 36.42680 24.08505 20894 ft 456 kts 131°
2026-05-04 11:38 36.40493 24.11328 20420 ft 452 kts 131°
2026-05-04 11:38 36.38327 24.14121 19928 ft 449 kts 131°
2026-05-04 11:38 36.36176 24.16897 19437 ft 445 kts 132°
2026-05-04 11:39 36.34045 24.19644 18947 ft 441 kts 132°
2026-05-04 11:39 36.31928 24.22368 18456 ft 438 kts 132°
2026-05-04 11:40 36.18590 24.36239 15456 ft 411 kts 178°
2026-05-04 11:41 36.15805 24.35925 14997 ft 398 kts 197°
2026-05-04 11:41 36.13172 24.34983 14534 ft 392 kts 201°
2026-05-04 11:41 36.10579 24.33997 14069 ft 389 kts 200°
2026-05-04 11:41 36.07987 24.33103 13593 ft 386 kts 198°
2026-05-04 11:42 36.05392 24.32299 13113 ft 384 kts 197°
2026-05-04 11:42 36.02796 24.31550 12629 ft 381 kts 196°
2026-05-04 11:42 36.00224 24.30829 12143 ft 378 kts 196°
2026-05-04 11:42 35.97672 24.30117 11666 ft 375 kts 196°
2026-05-04 11:43 35.95137 24.29408 11229 ft 371 kts 195°
2026-05-04 11:43 35.92679 24.28726 11026 ft 349 kts 195°
2026-05-04 11:43 35.90396 24.28096 10867 ft 323 kts 196°
2026-05-04 11:43 35.88283 24.27509 10731 ft 299 kts 196°
2026-05-04 11:44 35.86301 24.26956 10604 ft 289 kts 197°
2026-05-04 11:44 35.84353 24.26408 10489 ft 286 kts 197°
2026-05-04 11:44 35.82429 24.25897 10292 ft 281 kts 190°
2026-05-04 11:44 35.80497 24.26072 10035 ft 280 kts 161°
2026-05-04 11:45 35.78854 24.27282 9775 ft 275 kts 132°
2026-05-04 11:45 35.77818 24.29190 9524 ft 264 kts 107°
2026-05-04 11:45 35.77315 24.31334 9370 ft 260 kts 100°
2026-05-04 11:45 35.76810 24.33470 9235 ft 261 kts 105°
2026-05-04 11:46 35.76122 24.35540 9066 ft 261 kts 112°
2026-05-04 11:46 35.75254 24.37503 8729 ft 262 kts 118°
2026-05-04 11:46 35.74226 24.39361 8398 ft 263 kts 124°
2026-05-04 11:46 35.73074 24.41097 8101 ft 262 kts 129°
2026-05-04 11:47 35.71823 24.42710 7799 ft 260 kts 133°
2026-05-04 11:47 35.70488 24.44201 7520 ft 259 kts 137°
2026-05-04 11:47 35.69079 24.45573 7212 ft 258 kts 141°
2026-05-04 11:47 35.67605 24.46822 6912 ft 257 kts 145°
2026-05-04 11:48 35.66077 24.47945 6609 ft 256 kts 150°
2026-05-04 11:48 35.64383 24.48577 6230 ft 257 kts 181°
2026-05-04 11:48 35.62679 24.48099 5936 ft 249 kts 212°
2026-05-04 11:48 35.61409 24.46741 5633 ft 240 kts 241°
2026-05-04 11:49 35.60723 24.44923 5330 ft 233 kts 254°
2026-05-04 11:49 35.60137 24.43062 5034 ft 235 kts 245°
2026-05-04 11:49 35.59011 24.41616 4724 ft 240 kts 208°
2026-05-04 11:49 35.57410 24.41080 4496 ft 237 kts 189°
2026-05-04 11:50 35.55782 24.40816 4263 ft 234 kts 188°
2026-05-04 11:50 35.54217 24.40434 4104 ft 224 kts 199°
2026-05-04 11:50 35.52831 24.39729 4124 ft 205 kts 210°
2026-05-04 11:50 35.51646 24.38788 4005 ft 200 kts 220°
2026-05-04 11:51 35.50636 24.37633 3899 ft 198 kts 231°
2026-05-04 11:51 35.49804 24.36291 3797 ft 196 kts 240°
2026-05-04 11:51 35.49176 24.34818 3738 ft 192 kts 250°
2026-05-04 11:51 35.48761 24.33304 3595 ft 183 kts 258°
2026-05-04 11:52 35.48549 24.31794 3311 ft 177 kts 268°
2026-05-04 11:52 35.48539 24.30309 2966 ft 171 kts 278°
2026-05-04 11:52 35.48764 24.28907 2649 ft 163 kts 287°
2026-05-04 11:52 35.49097 24.27614 2361 ft 154 kts 291°
2026-05-04 11:53 35.49462 24.26404 2130 ft 148 kts 292°
2026-05-04 11:53 35.49833 24.25253 1963 ft 139 kts 292°
2026-05-04 11:53 35.50184 24.24161 1752 ft 136 kts 292°
2026-05-04 11:53 35.50543 24.23100 1510 ft 132 kts 292°
2026-05-04 11:55 35.52887 24.15852 472 ft 92 kts 292°
2026-05-04 11:55 35.53062 24.15312 462 ft 43 kts 290°
2026-05-04 11:56 35.53152 24.15122 459 ft 15 kts 353°
2026-05-04 11:56 35.53222 24.15153 455 ft 3 kts 23°
2026-05-04 11:56 35.53224 24.15154 455 ft 0 kts 23°
2026-05-04 11:56 35.53239 24.15162 454 ft 3 kts 22°
2026-05-04 11:57 35.53281 24.15173 451 ft 11 kts 343°
2026-05-04 11:57 35.53336 24.15043 448 ft 19 kts 290°
2026-05-04 11:57 35.53388 24.14881 445 ft 20 kts 290°
2026-05-04 11:57 35.53441 24.14708 440 ft 22 kts 297°
2026-05-04 11:58 35.53503 24.14529 435 ft 20 kts 290°
2026-05-04 11:58 35.53554 24.14372 432 ft 16 kts 296°
2026-05-04 11:58 35.53647 24.14365 427 ft 15 kts 21°
2026-05-04 11:58 35.53713 24.14278 424 ft 16 kts 289°
2026-05-04 11:59 35.53761 24.14237 422 ft 10 kts 10°
2026-05-04 11:59 35.53804 24.14257 420 ft 4 kts 21°
2026-05-04 11:59 35.53806 24.14259 420 ft 0 kts 22°